SCP
-0 0 -0 -0 0 0 0 -0 -0 -0 -0 -0 -0 -0 -0 -0 -0 -0 -0 -0 -0 -0 -0 -0 -0 -0 -0 -0 -0 -0 -0 -0 -0 -0 -0 -0 -0 -0 -0 -0 -0 -0 -0
0 -0 -0 -0 -0 -0 -0 -0 -0 -0 -0 -0 -0 -0 -0 -0 -0 -0 -0 -0 -0 -0 -0 -0 -0 -0 -0 -0 -0 -0 -0 -0 -0 -0 -0 -0 -0 -0 -0 -0 -0 -0 -0
0 -0 0 -0 -0 -0 -0 -0 -0 -0 -0 -0 -0 -0 -0 -0 -0 -0 -0 -0 -0 -0 -0 -0 -0 -0 -0 -0 -0 -0 -0 -0 -0 -0 -0 0 0 -0 -0 -0 -0 -0 -0
0 -0 -0 -0 -0 -0 -0 -0 -0 -0 -0 -0 -0 -0 -0 -0 -0 -0 -0 -0 -0 -0 -0 -0 -0 -0 -0 -0 -0 -0 -0 -0 -0 -0 0 0 0 -0 -0 -0 -0 -0 -0
-0 -0 -0 0 -0 -0 -0 -0 -0 -0 -0 -0 -0 -0 -0 -0 -0 -0 -0 -0 -0 -0 -0 -0 -0 -0 -0 -0 -0 -0 -0 -0 -0 -0 0 0 0 0 -0 -0 -0 -0 -0
-0 -0 -0 -0 -0 -0 0 -0 -0 -0 -0 -0 -0 -0 -0 -0 -0 -0 -0 -0 -0 -0 -0 -0 -0 -0 -0 -0 -0 -0 -0 -0 -0 0 0 0 0 0 0 0 -0 -0 0
-0 -0 -0 -0 -0 -0 -0 -0 0 -0 -0 -0 -0 -0 -0 -0 -0 -0 -0 -0 -0 -0 -0 -0 -0 -0 -0 -0 -0 -0 -0 -0 0 0 0 0 0 0 0 0 -0 -0 0
0 -0 -0 -0 -0 -0 -0 -0 0 0 0 0 0 -0 -0 -0 -0 -0 -0 -0 -0 -0 -0 -0 -0 -0 -0 -0 -0 -0 -0 -0 0 0 0 0 0 0 0 0 0 0 0
0 0 -0 -0 -0 -0 -0 -0 0 0 0 0 0 -0 -0 -0 -0 -0 -0 -0 -0 -0 -0 -0 -0 -0 -0 -0 -0 -0 -0 -0 0 0 0 0 0 0 0 0 0 0 0
-0 -0 -0 -0 -0 -0 -0 -0 0 0 0 -0 -0 -0 -0 -0 -0 -0 -0 -0 -0 -0 -0 -0 -0 -0 0 0 0 -0 0 0 0 0 0 0 0 0 0 0 0 0 0
-0 -0 -0 -0 -0 -0 -0 0 0 0 -0 -0 -0 -0 -0 0 0 -0 0 -0 -0 -0 -0 -0 0 0 0 0 0 0 0 0 0 0 0 0 0 0 0 0 0 0 0
0 0 0 0 0 0 0 0 0 0 0 0 0 0 0 0 0 0 0 -0 -0 -0 -0 0 0 0 0 0 0 0 0 0 0 0 0 0 0 0 0 0 0 0 0
0 0 0 0 0 0 0 0 0 0 0 0 0 0 0 0 0 0 0 0 0 0 0 0 0 0 0 0 0 0 0 0 0 0 0 0 0 0 0 0 0 0 0
0 0 0 -0 -0 -0 0 0 0 0 0 0 0 0 0 0 0 0 0 0 0 0 0 0 0 0 0 0 0 0 0 0 0 0 0 0 0 0 0 0 0 0 0
-0 -0 -0 -0 -0 -0 -0 -0 -0 0 0 -0 -0 -0 -0 0 0 0 0 0 0 0 0 0 0 0 0 0 0 0 0 0 0 0 0 0 0 0 0 0 0 0 0
-0 -0 -0 -0 -0 -0 -0 -0 -0 -0 -0 -0 -0 -0 -0 0 0 0 0 0 0 0 0 0 0 0 0 0 0 0 0 0 0 0 0 0 0 0 0 0 0 0 0
-0 -0 -0 -0 0 0 -0 0 0 0 0 0 0 0 0 0 0 0 0 0 0 0 0 0 0 0 0 0 0 0 0 0 0 0 0 0 0 0 0 0 0 0 0
0 0 0 0 0 0 0 0 0 0 0 0 0 0 0 0 0 0 0 0 0 0 0 0 0 0 0 0 0 0 0 0 0 0 0 0 0 0 0 0 0 0 0
0 0 0 0 0 0 0 0 0 0 0 0 0 0 0 0 0 0 0 0 0 0 0 0 0 0 0 0 0 0 0 0 0 0 0 0 0 0 0 0 0 0 0
0 0 0 0 0 0 0 0 0 0 0 0 0 0 0 0 0 0 0 0 0 0 0 0 0 0 0 0 0 0 0 0 0 0 0 0 0 0 0 0 0 0 0
0 0 0 0 0 0 0 0 0 0 0 0 0 0 0 0 0 0 0 0 0 0 0 0 0 0 0 0 0 0 0 0 0 0 0 0 0 0 0 0 0 0 0
0 0 0 0 0 0 0 0 0 0 0 0 0 0 0 0 0 0 0 0 0 0 0 0 0 0 0 0 0 0 0 0 0 0 0 0 0 0 0 0 0 0 0
0 0 0 0 0 0 0 0 0 0 0 0 0 0 0 0 0 0 0 0 0 0 0 0 0 0 0 0 0 0 0 0 0 0 0 0 0 0 0 0 0 0 0
0 0 0 0 0 0 0 0 0 0 0 0 0 0 0 0 0 0 0 0 0 0 0 0 0 0 0 0 0 0 0 0 0 0 0 0 0 0 0 0 0 0 0
0 0 0 0 0 0 0 0 0 0 0 0 0 0 0 0 0 0 0 0 0 0 0 0 0 0 0 0 0 0 0 0 0 0 0 0 0 0 0 0 0 0 0
0 0 0 0 0 0 0 0 0 0 0 0 0 0 0 0 0 0 0 0 0 0 0 0 0 0 0 0 0 0 0 0 0 0 0 0 0 0 0 0 0 0 0
Wind_Speed_500mb
33 29 27 25 22 18 18 22 22 23 22 19 24 23 19 18 19 20 24 24 21 21 23 19 27 31 35 36 35 34 33 33 32 32 31 32 33 32 31 32 29 35 31
38 33 28 26 24 25 24 24 22 25 24 22 24 22 20 23 27 24 24 25 27 24 25 23 27 28 28 28 26 23 23 22 20 19 19 21 21 19 21 26 24 22 20
39 31 28 24 25 28 27 23 24 24 25 24 25 26 28 30 31 29 33 33 31 30 25 26 26 27 25 25 25 25 27 25 20 18 18 20 16 16 18 12 9 7 6
37 33 27 24 24 26 29 27 24 25 26 25 25 27 32 34 28 27 32 32 30 30 31 32 30 26 27 30 32 27 26 22 22 19 32 30 29 31 27 22 23 29 26
36 33 28 27 28 28 32 29 24 23 24 27 28 29 35 33 25 28 29 32 30 31 31 31 31 32 34 34 32 33 25 21 20 17 24 28 30 24 16 13 17 20 22
37 32 29 27 27 32 33 31 24 19 23 26 27 28 28 26 24 23 25 27 26 29 28 27 25 25 25 30 33 31 24 17 15 15 21 21 18 19 18 19 20 16 12
34 28 28 28 28 30 32 29 21 18 20 22 23 24 23 21 20 20 22 21 22 25 25 23 23 25 25 34 35 29 21 15 11 11 12 15 20 19 14 13 12 10 13
32 30 29 30 29 29 32 31 23 18 18 19 20 21 20 19 17 17 18 22 22 24 23 22 23 24 29 38 35 27 20 9 14 19 18 23 19 14 18 10 7 7 10
27 30 28 29 30 30 29 29 25 20 18 17 18 18 18 17 17 19 21 16 18 19 20 21 23 27 29 31 31 25 16 8 11 16 12 15 11 12 9 6 10 10 7
23 31 29 27 27 27 27 26 22 20 17 16 16 15 16 15 15 15 17 11 11 14 17 20 21 22 22 22 21 16 7 5 12 18 7 9 10 9 6 8 11 10 7
25 29 27 26 24 23 22 21 19 18 16 14 12 12 13 12 12 13 12 6 7 12 14 15 17 17 16 15 14 8 5 9 14 15 13 12 14 12 13 12 13 13 10
32 33 28 28 26 24 22 20 18 16 14 12 9 9 8 10 10 7 4 3 6 8 9 10 10 11 12 13 10 4 7 8 16 14 18 16 16 16 15 15 15 16 14
35 34 28 28 31 29 24 22 19 16 14 12 9 5 2 5 5 2 2 2 3 4 3 4 3 2 3 6 5 3 6 4 11 14 16 17 17 17 16 15 15 16 16
43 39 35 31 24 25 26 23 21 19 17 15 12 8 4 2 2 2 2 2 2 1 2 4 3 1 2 2 1 4 6 1 6 9 10 12 15 18 19 17 16 16 16
49 45 46 43 40 37 28 27 26 23 22 18 15 14 11 10 9 8 7 5 6 4 3 3 3 3 2 2 3 4 3 4 6 10 12 15 17 17 16 16 17 17 17
51 48 46 49 45 43 37 29 27 24 25 24 22 18 17 15 15 14 12 10 8 7 6 4 4 4 4 5 4 3 5 7 10 16 18 21 23 23 23 23 23 22 21
52 46 44 46 56 50 44 39 35 35 31 27 26 24 22 22 20 19 18 16 14 13 11 9 7 7 5 6 7 9 13 16 20 25 29 30 31 33 32 32 32 30 29
52 54 45 39 43 49 51 47 42 37 39 32 30 28 29 28 27 26 24 21 20 19 17 16 13 11 11 11 15 19 22 26 30 33 36 39 41 42 43 42 42 41 39
50 52 47 42 38 38 41 47 46 44 42 40 38 35 29 27 29 30 29 26 25 24 24 22 26 24 24 25 28 31 36 40 39 44 45 44 47 51 52 51 51 52 51
43 49 47 44 42 38 41 44 44 42 46 46 42 41 38 34 28 28 31 31 31 30 32 32 33 36 36 37 41 43 43 51 52 53 53 54 56 59 57 57 57 58 56
44 48 49 45 43 42 44 45 49 51 48 47 46 44 44 43 38 34 33 35 36 35 34 37 40 41 43 44 51 54 56 55 56 59 58 54 57 51 50 48 46 50 46
51 46 48 47 43 43 43 38 41 47 51 47 46 46 44 45 44 43 39 39 39 39 41 42 43 45 46 49 55 59 63 64 64 50 62 59 52 60 60 52 51 50 56
52 56 53 47 47 48 47 40 37 36 41 43 45 46 47 45 46 47 48 47 46 47 46 47 46 49 52 52 54 51 29 28 50 67 58 66 62 59 55 59 57 63 59
49 54 60 62 55 50 47 49 46 47 42 42 39 41 42 44 45 46 45 46 48 51 49 51 48 48 51 51 52 57 62 64 68 60 68 74 70 63 63 57 63 63 61
39 40 49 56 62 64 59 52 47 48 44 39 37 34 35 34 37 38 38 39 44 47 50 50 56 52 49 55 50 55 54 62 62 72 73 80 71 71 69 69 69 68 67
35 37 40 46 51 58 63 63 55 42 37 37 29 25 27 26 25 24 23 25 26 29 33 36 39 43 46 47 51 55 57 59 59 68 70 79 84 87 78 75 71 69 72
Wind_Direction_500mb
157 152 141 135 128 121 108 98 91 92 86 87 93 93 92 99 122 151 126 113 106 107 89 93 93 94 96 96 93 90 88 88 84 83 84 84 85 86 84 80 80 83 82
155 153 142 132 125 121 116 106 84 86 89 88 94 95 89 88 98 109 116 103 103 105 103 90 112 103 100 96 90 85 79 76 77 83 82 87 80 91 90 84 83 87 80
156 149 145 134 134 127 124 108 95 86 82 85 92 95 92 90 88 88 97 100 100 101 97 99 107 107 99 93 91 90 85 76 69 90 97 84 74 78 76 76 68 57 69
151 150 140 130 131 128 126 112 104 91 81 87 91 90 92 94 84 86 96 95 99 96 95 98 104 101 100 102 101 91 85 71 68 67 82 77 72 69 74 72 73 69 65
146 147 142 142 135 128 125 119 109 96 87 92 96 95 100 104 89 88 93 97 94 95 96 101 102 103 105 107 99 86 85 80 65 65 68 71 61 57 54 50 60 79 88
138 142 140 136 133 131 132 126 123 107 89 85 90 96 104 106 95 91 97 99 98 99 101 106 107 111 110 109 108 93 85 91 74 76 80 77 65 57 34 43 74 81 97
141 143 140 140 135 131 132 129 129 112 99 90 88 96 101 101 91 86 96 98 96 98 95 93 98 104 99 101 103 92 80 65 43 52 56 47 54 51 34 65 90 92 92
154 153 148 142 139 136 137 135 139 128 111 96 91 97 102 102 96 91 95 91 101 92 88 88 93 98 100 110 108 86 98 35 26 37 63 70 62 54 56 70 78 62 97
164 161 156 150 145 143 142 147 143 138 122 108 98 95 98 106 107 96 97 89 106 85 88 90 95 99 108 118 120 113 105 56 2 14 55 80 64 59 81 55 35 38 77
172 171 165 157 151 149 147 146 150 139 132 121 104 96 101 104 106 116 114 117 97 99 94 90 98 103 105 118 132 147 185 50 4 20 60 55 23 69 45 30 26 50 68
181 179 173 168 163 158 155 153 152 149 144 133 120 102 103 110 114 128 143 103 59 106 110 102 105 104 100 99 122 127 38 10 11 34 42 43 48 43 39 28 26 28 18
190 187 184 184 180 175 172 169 166 162 157 150 142 127 116 108 108 115 132 91 44 66 99 106 105 107 109 112 121 100 58 22 13 39 39 40 45 42 40 41 37 33 30
197 192 188 195 192 186 184 185 185 184 181 175 183 177 105 83 68 53 15 14 35 61 97 123 136 74 67 98 114 88 86 54 21 36 38 36 38 44 43 38 27 27 23
201 198 194 198 203 209 192 197 201 204 208 201 201 212 237 229 273 268 286 255 217 190 231 192 231 302 38 25 74 126 144 116 9 22 10 14 14 21 27 27 20 15 11
208 211 211 204 194 198 212 211 211 214 219 221 220 220 229 237 257 252 256 242 234 247 241 229 264 265 151 183 182 182 209 267 339 348 342 351 357 353 350 352 356 0 355
214 217 223 225 214 207 204 215 216 225 221 225 231 231 233 239 251 263 264 267 262 266 261 266 276 238 223 227 222 261 273 274 304 319 323 323 324 325 328 325 326 326 325
220 224 226 228 225 220 216 215 211 214 217 237 234 237 240 245 248 253 261 266 265 260 252 245 263 235 248 247 269 292 301 304 307 305 307 308 309 310 311 310 310 307 306
223 229 234 227 222 230 228 222 224 216 221 228 239 242 238 246 247 249 254 259 259 259 256 254 262 266 269 277 287 292 295 297 298 293 291 297 301 303 302 303 301 300 300
217 228 235 240 234 234 235 227 229 225 225 224 231 238 247 236 244 248 253 255 255 256 253 254 257 259 269 280 288 290 297 291 287 289 292 292 293 296 297 296 294 296 296
219 225 234 238 242 246 248 228 228 231 231 232 236 236 237 244 243 244 248 252 252 256 250 252 260 262 266 272 277 280 285 286 288 289 292 295 296 290 292 289 287 287 289
215 219 227 234 236 240 243 230 226 229 231 234 237 238 238 240 246 252 248 252 254 259 261 260 264 267 271 275 278 279 283 285 287 292 297 299 297 295 293 292 293 290 291
213 219 228 234 241 244 247 249 248 243 237 238 239 239 241 242 247 253 257 265 267 267 265 263 262 267 271 271 272 281 289 292 292 296 298 299 296 296 294 288 293 289 294
208 213 216 223 234 246 253 253 247 246 236 237 239 240 243 249 251 255 262 265 264 265 267 270 268 270 272 276 279 276 277 285 297 300 298 298 290 297 291 286 288 290 295
212 215 220 219 221 231 242 246 240 232 235 239 242 250 248 253 254 258 260 263 265 268 266 268 270 278 285 281 280 287 285 289 286 299 290 306 291 301 302 295 293 294 287
219 224 225 224 222 223 226 234 242 244 246 252 252 249 254 257 258 262 264 261 262 264 266 268 270 281 283 284 282 290 291 287 290 284 283 307 299 296 293 294 293 292 295
231 229 229 229 225 222 223 229 234 231 235 248 255 258 255 255 257 264 269 274 277 272 273 274 274 275 277 282 286 287 285 295 289 301 292 299 299 300 299 294 296 295 295
Wind_Speed_850mb
33 29 27 25 22 18 18 22 22 23 22 19 24 23 19 18 19 20 24 24 21 21 23 19 27 31 35 36 35 34 33 33 32 32 31 32 33 32 31 32 29 35 31
38 33 28 26 24 25 24 24 22 25 24 22 24 22 20 23 27 24 24 25 27 24 25 23 27 28 28 28 26 23 23 22 20 19 19 21 21 19 21 26 24 22 20
39 31 28 24 25 28 27 23 24 24 25 24 25 26 28 30 31 29 33 33 31 30 25 26 26 27 25 25 25 25 27 25 20 18 18 20 16 16 18 12 9 7 6
37 33 27 24 24 26 29 27 24 25 26 25 25 27 32 34 28 27 32 32 30 30 31 32 30 26 27 30 32 27 26 22 22 19 32 30 29 31 27 22 23 29 26
36 33 28 27 28 28 32 29 24 23 24 27 28 29 35 33 25 28 29 32 30 31 31 31 31 32 34 34 32 33 25 21 20 17 24 28 30 24 16 13 17 20 22
37 32 29 27 27 32 33 31 24 19 23 26 27 28 28 26 24 23 25 27 26 29 28 27 25 25 25 30 33 31 24 17 15 15 21 21 18 19 18 19 20 16 12
34 28 28 28 28 30 32 29 21 18 20 22 23 24 23 21 20 20 22 21 22 25 25 23 23 25 25 34 35 29 21 15 11 11 12 15 20 19 14 13 12 10 13
32 30 29 30 29 29 32 31 23 18 18 19 20 21 20 19 17 17 18 22 22 24 23 22 23 24 29 38 35 27 20 9 14 19 18 23 19 14 18 10 7 7 10
27 30 28 29 30 30 29 29 25 20 18 17 18 18 18 17 17 19 21 16 18 19 20 21 23 27 29 31 31 25 16 8 11 16 12 15 11 12 9 6 10 10 7
23 31 29 27 27 27 27 26 22 20 17 16 16 15 16 15 15 15 17 11 11 14 17 20 21 22 22 22 21 16 7 5 12 18 7 9 10 9 6 8 11 10 7
25 29 27 26 24 23 22 21 19 18 16 14 12 12 13 12 12 13 12 6 7 12 14 15 17 17 16 15 14 8 5 9 14 15 13 12 14 12 13 12 13 13 10
32 33 28 28 26 24 22 20 18 16 14 12 9 9 8 10 10 7 4 3 6 8 9 10 10 11 12 13 10 4 7 8 16 14 18 16 16 16 15 15 15 16 14
35 34 28 28 31 29 24 22 19 16 14 12 9 5 2 5 5 2 2 2 3 4 3 4 3 2 3 6 5 3 6 4 11 14 16 17 17 17 16 15 15 16 16
43 39 35 31 24 25 26 23 21 19 17 15 12 8 4 2 2 2 2 2 2 1 2 4 3 1 2 2 1 4 6 1 6 9 10 12 15 18 19 17 16 16 16
49 45 46 43 40 37 28 27 26 23 22 18 15 14 11 10 9 8 7 5 6 4 3 3 3 3 2 2 3 4 3 4 6 10 12 15 17 17 16 16 17 17 17
51 48 46 49 45 43 37 29 27 24 25 24 22 18 17 15 15 14 12 10 8 7 6 4 4 4 4 5 4 3 5 7 10 16 18 21 23 23 23 23 23 22 21
52 46 44 46 56 50 44 39 35 35 31 27 26 24 22 22 20 19 18 16 14 13 11 9 7 7 5 6 7 9 13 16 20 25 29 30 31 33 32 32 32 30 29
52 54 45 39 43 49 51 47 42 37 39 32 30 28 29 28 27 26 24 21 20 19 17 16 13 11 11 11 15 19 22 26 30 33 36 39 41 42 43 42 42 41 39
50 52 47 42 38 38 41 47 46 44 42 40 38 35 29 27 29 30 29 26 25 24 24 22 26 24 24 25 28 31 36 40 39 44 45 44 47 51 52 51 51 52 51
43 49 47 44 42 38 41 44 44 42 46 46 42 41 38 34 28 28 31 31 31 30 32 32 33 36 36 37 41 43 43 51 52 53 53 54 56 59 57 57 57 58 56
44 48 49 45 43 42 44 45 49 51 48 47 46 44 44 43 38 34 33 35 36 35 34 37 40 41 43 44 51 54 56 55 56 59 58 54 57 51 50 48 46 50 46
51 46 48 47 43 43 43 38 41 47 51 47 46 46 44 45 44 43 39 39 39 39 41 42 43 45 46 49 55 59 63 64 64 50 62 59 52 60 60 52 51 50 56
52 56 53 47 47 48 47 40 37 36 41 43 45 46 47 45 46 47 48 47 46 47 46 47 46 49 52 52 54 51 29 28 50 67 58 66 62 59 55 59 57 63 59
49 54 60 62 55 50 47 49 46 47 42 42 39 41 42 44 45 46 45 46 48 51 49 51 48 48 51 51 52 57 62 64 68 60 68 74 70 63 63 57 63 63 61
39 40 49 56 62 64 59 52 47 48 44 39 37 34 35 34 37 38 38 39 44 47 50 50 56 52 49 55 50 55 54 62 62 72 73 80 71 71 69 69 69 68 67
35 37 40 46 51 58 63 63 55 42 37 37 29 25 27 26 25 24 23 25 26 29 33 36 39 43 46 47 51 55 57 59 59 68 70 79 84 87 78 75 71 69 72
Wind_Direction_850mb
157 152 141 135 128 121 108 98 91 92 86 87 93 93 92 99 122 151 126 113 106 107 89 93 93 94 96 96 93 90 88 88 84 83 84 84 85 86 84 80 80 83 82
155 153 142 132 125 121 116 106 84 86 89 88 94 95 89 88 98 109 116 103 103 105 103 90 112 103 100 96 90 85 79 76 77 83 82 87 80 91 90 84 83 87 80
156 149 145 134 134 127 124 108 95 86 82 85 92 95 92 90 88 88 97 100 100 101 97 99 107 107 99 93 91 90 85 76 69 90 97 84 74 78 76 76 68 57 69
151 150 140 130 131 128 126 112 104 91 81 87 91 90 92 94 84 86 96 95 99 96 95 98 104 101 100 102 101 91 85 71 68 67 82 77 72 69 74 72 73 69 65
146 147 142 142 135 128 125 119 109 96 87 92 96 95 100 104 89 88 93 97 94 95 96 101 102 103 105 107 99 86 85 80 65 65 68 71 61 57 54 50 60 79 88
138 142 140 136 133 131 132 126 123 107 89 85 90 96 104 106 95 91 97 99 98 99 101 106 107 111 110 109 108 93 85 91 74 76 80 77 65 57 34 43 74 81 97
141 143 140 140 135 131 132 129 129 112 99 90 88 96 101 101 91 86 96 98 96 98 95 93 98 104 99 101 103 92 80 65 43 52 56 47 54 51 34 65 90 92 92
154 153 148 142 139 136 137 135 139 128 111 96 91 97 102 102 96 91 95 91 101 92 88 88 93 98 100 110 108 86 98 35 26 37 63 70 62 54 56 70 78 62 97
164 161 156 150 145 143 142 147 143 138 122 108 98 95 98 106 107 96 97 89 106 85 88 90 95 99 108 118 120 113 105 56 2 14 55 80 64 59 81 55 35 38 77
172 171 165 157 151 149 147 146 150 139 132 121 104 96 101 104 106 116 114 117 97 99 94 90 98 103 105 118 132 147 185 50 4 20 60 55 23 69 45 30 26 50 68
181 179 173 168 163 158 155 153 152 149 144 133 120 102 103 110 114 128 143 103 59 106 110 102 105 104 100 99 122 127 38 10 11 34 42 43 48 43 39 28 26 28 18
190 187 184 184 180 175 172 169 166 162 157 150 142 127 116 108 108 115 132 91 44 66 99 106 105 107 109 112 121 100 58 22 13 39 39 40 45 42 40 41 37 33 30
197 192 188 195 192 186 184 185 185 184 181 175 183 177 105 83 68 53 15 14 35 61 97 123 136 74 67 98 114 88 86 54 21 36 38 36 38 44 43 38 27 27 23
201 198 194 198 203 209 192 197 201 204 208 201 201 212 237 229 273 268 286 255 217 190 231 192 231 302 38 25 74 126 144 116 9 22 10 14 14 21 27 27 20 15 11
208 211 211 204 194 198 212 211 211 214 219 221 220 220 229 237 257 252 256 242 234 247 241 229 264 265 151 183 182 182 209 267 339 348 342 351 357 353 350 352 356 0 355
214 217 223 225 214 207 204 215 216 225 221 225 231 231 233 239 251 263 264 267 262 266 261 266 276 238 223 227 222 261 273 274 304 319 323 323 324 325 328 325 326 326 325
220 224 226 228 225 220 216 215 211 214 217 237 234 237 240 245 248 253 261 266 265 260 252 245 263 235 248 247 269 292 301 304 307 305 307 308 309 310 311 310 310 307 306
223 229 234 227 222 230 228 222 224 216 221 228 239 242 238 246 247 249 254 259 259 259 256 254 262 266 269 277 287 292 295 297 298 293 291 297 301 303 302 303 301 300 300
217 228 235 240 234 234 235 227 229 225 225 224 231 238 247 236 244 248 253 255 255 256 253 254 257 259 269 280 288 290 297 291 287 289 292 292 293 296 297 296 294 296 296
219 225 234 238 242 246 248 228 228 231 231 232 236 236 237 244 243 244 248 252 252 256 250 252 260 262 266 272 277 280 285 286 288 289 292 295 296 290 292 289 287 287 289
215 219 227 234 236 240 243 230 226 229 231 234 237 238 238 240 246 252 248 252 254 259 261 260 264 267 271 275 278 279 283 285 287 292 297 299 297 295 293 292 293 290 291
213 219 228 234 241 244 247 249 248 243 237 238 239 239 241 242 247 253 257 265 267 267 265 263 262 267 271 271 272 281 289 292 292 296 298 299 296 296 294 288 293 289 294
208 213 216 223 234 246 253 253 247 246 236 237 239 240 243 249 251 255 262 265 264 265 267 270 268 270 272 276 279 276 277 285 297 300 298 298 290 297 291 286 288 290 295
212 215 220 219 221 231 242 246 240 232 235 239 242 250 248 253 254 258 260 263 265 268 266 268 270 278 285 281 280 287 285 289 286 299 290 306 291 301 302 295 293 294 287
219 224 225 224 222 223 226 234 242 244 246 252 252 249 254 257 258 262 264 261 262 264 266 268 270 281 283 284 282 290 291 287 290 284 283 307 299 296 293 294 293 292 295
231 229 229 229 225 222 223 229 234 231 235 248 255 258 255 255 257 264 269 274 277 272 273 274 274 275 277 282 286 287 285 295 289 301 292 299 299 300 299 294 296 295 295